    Observer details:
    104 San Marcello Pistoiese.  Observers P. Bacci, M. Maestripieri.  Measurers
        P. Bacci, L. Tesi, G. Fagioli.  0.60-m reflector + CCD.
    246 Klet Observatory-KLENOT.  Observers M. Tichy, J. Ticha, M. Honkova.
        Measurer M. Tichy.  1.06-m f/2.7 reflector + 2048x2048 CCD.
    734 Farpoint Observatory, Eskridge.  Observers G. Hug, D. Cromer, D. Goodin,
        R. Valentine.  Measurer D. Cromer.  0.7-m reflector + CCD.
    958 Observatoire de Dax.  Observer P. Dupouy.  0.32-m f/4.1 Schmidt-
        Cassegrain.
    A17 Guidestar Observatory, Weinheim.  Observers M. Emmerich, S. Melchert.
        0.36-m f/6.0 Schmidt-Cassegrain + CCD.
    C47 Nonndorf.  Observer G. Dangl.  0.25-m f/4.8 reflector + CCD.
    G96 Mt. Lemmon Survey.  Observer K. W. Wierzchos.  Measurers E. J.
        Christensen, G. A. Farneth, D. C. Fuls, A. R. Gibbs, A. D. Grauer, H.
        Groeller, R. A. Kowalski, S. M. Larson, G. J. Leonard, T. A. Pruyne, D.
        Rankin, R. L. Seaman, F. C. Shelly, K. W. Wierzchos.  1.5-m reflector +
        10K CCD.
    H36 Sandlot Observatory, Scranton.  Observer G. Hug.  0.56-m reflector + CCD.
    I52 Steward Observatory, Mt. Lemmon Station.  Observer H. Groeller.  Measurers
        E. J. Christensen, G. A. Farneth, D. C. Fuls, A. R. Gibbs, A. D. Grauer,
        H. Groeller, R. A. Kowalski, S. M. Larson, G. J. Leonard, T. A. Pruyne, D.
        Rankin, R. L. Seaman, F. C. Shelly, K. W. Wierzchos.  1.0-m reflector +
        CCD.
    I93 St Pardon de Conques.  Observer F. Losse.  0.40-m f/3.7 reflector + CCD.
    J95 Great Shefford.  Observer P. Birtwhistle.  0.41-m f/6.3 Schmidt-Cassegrain
        + CCD.
    K38 M57 Observatory, Saltrio.  Observer G. Baj.  0.3-m f/6.54 Ritchey-Chretien
        + CCD.
    K61 Rokycany Observatory.  Observer M. Adamovsky.  0.51-m f/6.8 reflector +
        CCD.
    K87 Dettelbach Vineyard Observatory.  Observer B. Haeusler.  0.3-m f/8.0
        Schmidt-Cassegrain + CCD.
    L01 Visnjan Observatory, Tican.  Observers K. Korlevic, D. Pujagic, V. Dobos.
        Measurers D. Pujagic, K. Korlevic.  1.0-m f/2.9 reflector + CCD.
    L06 Sormano 2 Observatory, Bellagio Via Lattea.  Observer G. Ventre.  Measurer
        P. Sicoli.  0.36-m Schmidt-Cassegrain + CCD.
    N82 Multa Observatory.  Observer L. Elenin.  0.4-m f/1.25 reflector + CCD.
    N88 Xingming Observatory #3, Nanshan.  Observer X. Gao.  Measurer Q.-Z. Ye.
        0.6-m f/8 Ritchey-Chretien + CCD.
    V01 Mountainville Observatory, Alpine.  Observer B. Sheets.  0.36-m reflector
        + CCD.
    Z99 Clixby Observatory, Cleethorpes.  Observer A. Mickleburgh.  0.36-m f/8
        Schmidt-Cassegrain + CCD.
    
    Orbital elements:
    2021 GJ1                                                 Earth MOID = 0.1483 AU
    Epoch 2020 Dec. 17.0 TT = JDT 2459200.5                 Veres                   
    M 303.26755              (2000.0)            P               Q                  
    n   0.54732641     Peri.  358.31793     -0.98474359     +0.10388044             
    a   1.4801479      Node   191.10674     -0.14999358     -0.91343329             
    e   0.2242414      Incl.   46.44320     -0.08821558     +0.39350792             
    P   1.80           H   22.41          G   0.15           U   8                  
    Residuals in seconds of arc
    210403 G96  0.0-  0.1-    210404 L01  0.0+  0.0+    210404 N82  0.2-  0.5-
    210403 G96  0.1+  0.0+    210404 J95  0.4+  0.4-    210404 N82  0.0-  0.3-
    210403 G96  0.2-  0.4+    210404 L01  0.0-  0.1-    210404 N82  0.0-  1.0+
    210403 G96  0.1-  0.1-    210404 J95  0.1+  0.1-    210404 K61  0.5-  1.4+
    210403 V01  0.3-  0.4+    210404 L01  0.1-  0.0+    210404 K61  0.5-  1.1+
    210403 V01  0.4+  0.4+    210404 L01  0.2+  0.1-    210404 K61  0.1-  1.2+
    210403 I52  0.1+  0.2-    210404 L01  0.4+  0.3-    210404 K61  0.0+  1.1+
    210403 I52  0.2-  0.1-    210404 958  0.0-  0.0-    210404 K61  0.1+  1.2+
    210403 I52  0.1+  0.0+    210404 958  0.2+  0.1-    210404 A17  0.3+  0.1+
    210403 I52  0.1-  0.1-    210404 958  0.0-  0.6-    210404 A17  0.5-  0.7-
    210403 V01  0.0+  0.4-    210404 V01  0.0-  0.2-    210404 A17 (0.4-  1.0-)
    210403 A17  0.0-  0.3+    210404 I52  0.1-  0.2-    210404 246  0.4+  0.2+
    210403 A17  0.4-  0.1-    210404 I52  0.1+  0.0+    210404 246 (1.0+  1.4+)
    210403 A17  0.1+  0.2+    210404 I52  0.3+  0.4-    210404 246  0.4-  0.1-
    210403 104 (1.7+  0.1-)   210404 V01  0.1+  0.8+    210404 246  0.1-  0.6+
    210403 104  0.5+  0.4-    210404 H36  0.2+  0.9+    210404 L06  0.1-  0.3+
    210403 Z99  0.3+  0.2-    210404 734  0.1-  0.6+    210404 L06  0.4-  0.0-
    210403 Z99  0.3+  0.1-    210404 734  0.5+  0.5+    210404 L06  0.5-  0.2+
    210403 Z99  0.2+  0.2+    210404 H36  0.1+  0.4+    210404 K38  0.2+  0.6+
    210403 K87  0.8-  0.3-    210404 734  0.1-  0.4+    210404 C47  0.2-  0.1+
    210403 K87  0.7-  0.5+    210404 H36  0.0+  0.5-    210404 K38  0.2+  0.3-
    210403 I93  0.3-  0.2+    210404 N88  0.1+  0.5+    210404 K38  0.2+  0.3-
    210403 I93  0.4+  0.2-    210404 N88  0.2+  0.2-    210404 C47  0.1-  0.3-
    210403 J95  0.0-  0.1-    210404 N88  0.1+  0.2-    210404 C47  0.2-  0.0-
    210403 I93  0.5-  0.1+    210404 N88  0.3+  0.2-
    210403 J95  0.2-  0.0-    210404 N88  0.5-  0.3+
    
    Ephemeris:
    2021 GJ1                 a,e,i = 1.48, 0.22, 46                  q = 1.1482
    Date    TT    R. A. (2000) Decl.     Delta      r    Elong.  Phase     V
    2021 03 05    11 59 06.6 -68 12 49   0.4059  1.1645   105.0    55.4    22.8
    ...
    2021 03 20    12 14 30.3 -51 31 08   0.2288  1.1511   128.1    42.9    21.2
    ...
    2021 03 28    12 21 22.8 -25 36 20   0.1613  1.1484   157.2    19.7    19.7
    ...
    2021 04 03    12 26 20.4 +04 51 10   0.1514  1.1485   168.5    10.0    19.3
    2021 04 04    12 27 09.7 +09 54 12   0.1543  1.1487   163.3    14.5    19.5
    2021 04 05    12 27 59.1 +14 43 10   0.1584  1.1490   158.2    18.9    19.7
    ...
    2021 04 11    12 33 00.5 +36 58 55   0.2029  1.1515   133.6    39.1    20.8
    ...
    2021 04 19    12 40 15.1 +52 09 42   0.2898  1.1575   115.1    51.8    21.9
    ...
    2021 05 04    12 56 18.2 +62 23 12   0.4707  1.1770    98.9    57.8    23.2
    
    M. P. C. Staff               (C) Copyright 2021 MPC           M.P.E.C. 2021-G39
    


    Read MPEC 2021-G38 Read MPEC 2021-G40


    MPEC number:

    Enter an MPEC number in one of the following forms:

    • 1997-B01 (the full form)
    • J97B01 (the packed version of the full form)
    • B01 (the abbreviated form)